Location: Le Petit-Vavre
(46.5081°N, 1.5239°E)
Time: 13:44:22
(UTC+00:00)

Cosmos 2278 Rocket - Pass Details

Date: 03 March 2021
Orbit: 841 x 845 km, 71.0° (Epoch: 14 April)

Event Time Altitude Azimuth Distance (km) Brightness Sun altitude
Rises 18:39:35 0° 340° (NNW) 3,415 5.7 -10.5°
Reaches altitude 10° 18:43:07 10° 2° (N) 2,476 4.6 -11.2°
Maximum altitude 18:46:30 16° 39° (NE) 2,085 3.9 -11.7°
Enters shadow 18:48:50 13° 66° (ENE) 2,276 3.9 -12.1°
